QPF
0.00 0.00 0.00 0.00 0.00 0.00 0.01 0.01 0.01 0.01 0.01 0.03 0.04 0.04 0.06 0.08 0.13 0.18 0.14 0.08 0.04 0.02 0.01 0.01 0.00 0.00 0.00 0.00 0.01 0.01 0.01 0.01 0.01 0.01 0.01 0.02 0.02 0.02 0.02 0.02 0.02 0.01 0.01 0.00
0.00 0.00 0.00 0.00 0.00 0.00 0.00 0.00 0.00 0.01 0.04 0.05 0.06 0.08 0.10 0.13 0.15 0.14 0.09 0.06 0.03 0.02 0.01 0.01 0.01 0.01 0.01 0.02 0.02 0.02 0.02 0.02 0.03 0.02 0.03 0.03 0.02 0.02 0.02 0.01 0.00 0.00 0.00 0.00
0.00 0.00 0.00 0.00 0.00 0.00 0.00 0.00 0.00 0.02 0.05 0.05 0.06 0.07 0.08 0.10 0.11 0.08 0.05 0.03 0.02 0.01 0.01 0.01 0.01 0.02 0.02 0.03 0.03 0.03 0.04 0.04 0.03 0.03 0.03 0.02 0.01 0.01 0.00 0.00 0.00 0.00 0.00 0.00
0.00 0.00 0.00 0.00 0.01 0.01 0.01 0.02 0.01 0.02 0.02 0.02 0.02 0.02 0.03 0.03 0.04 0.03 0.02 0.01 0.01 0.01 0.02 0.02 0.02 0.02 0.03 0.04 0.04 0.04 0.04 0.03 0.02 0.01 0.01 0.01 0.00 0.00 0.00 0.00 0.00 0.00 0.00 0.00
0.00 0.00 0.00 0.00 0.00 0.01 0.02 0.03 0.02 0.02 0.02 0.01 0.01 0.01 0.01 0.00 0.00 0.00 0.01 0.01 0.01 0.01 0.02 0.03 0.03 0.04 0.04 0.04 0.04 0.04 0.03 0.02 0.01 0.01 0.00 0.00 0.00 0.00 0.00 0.00 0.00 0.00 0.00 0.00
0.00 0.00 0.01 0.01 0.00 0.01 0.02 0.04 0.01 0.01 0.02 0.01 0.01 0.01 0.01 0.00 0.00 0.00 0.00 0.01 0.01 0.01 0.02 0.03 0.03 0.02 0.03 0.03 0.03 0.02 0.01 0.01 0.00 0.00 0.00 0.00 0.00 0.00 0.00 0.00 0.00 0.00 0.00 0.00
0.03 0.02 0.03 0.01 0.00 0.01 0.02 0.02 0.01 0.01 0.01 0.01 0.01 0.01 0.00 0.00 0.00 0.00 0.00 0.00 0.01 0.01 0.02 0.02 0.02 0.03 0.03 0.02 0.02 0.01 0.00 0.00 0.00 0.00 0.00 0.00 0.00 0.00 0.00 0.00 0.00 0.00 0.00 0.00
0.05 0.05 0.05 0.01 0.01 0.01 0.02 0.01 0.01 0.00 0.01 0.01 0.00 0.00 0.00 0.00 0.00 0.00 0.00 0.00 0.00 0.01 0.01 0.02 0.02 0.02 0.02 0.01 0.00 0.00 0.00 0.00 0.00 0.00 0.00 0.00 0.00 0.00 0.00 0.00 0.00 0.00 0.00 0.00
0.05 0.06 0.04 0.01 0.01 0.01 0.01 0.01 0.01 0.01 0.01 0.01 0.00 0.00 0.00 0.00 0.00 0.00 0.00 0.00 0.01 0.01 0.01 0.01 0.01 0.01 0.01 0.00 0.00 0.00 0.00 0.00 0.00 0.00 0.00 0.00 0.00 0.00 0.00 0.00 0.00 0.00 0.00 0.00
0.02 0.03 0.02 0.01 0.01 0.00 0.00 0.00 0.00 0.01 0.01 0.01 0.00 0.00 0.00 0.00 0.00 0.00 0.00 0.00 0.01 0.01 0.01 0.01 0.00 0.00 0.00 0.00 0.00 0.00 0.00 0.00 0.00 0.00 0.00 0.00 0.00 0.00 0.00 0.00 0.00 0.00 0.00 0.00
0.01 0.02 0.02 0.02 0.01 0.00 0.01 0.01 0.01 0.02 0.01 0.01 0.01 0.00 0.00 0.00 0.00 0.00 0.01 0.01 0.01 0.01 0.01 0.01 0.00 0.00 0.00 0.00 0.00 0.00 0.00 0.00 0.00 0.00 0.00 0.00 0.00 0.00 0.00 0.00 0.00 0.00 0.00 0.00
0.01 0.01 0.01 0.01 0.01 0.01 0.01 0.02 0.01 0.01 0.01 0.01 0.01 0.01 0.01 0.01 0.01 0.01 0.01 0.01 0.01 0.01 0.01 0.00 0.00 0.00 0.00 0.00 0.00 0.00 0.00 0.00 0.00 0.00 0.00 0.00 0.00 0.00 0.00 0.00 0.00 0.00 0.00 0.00
0.00 0.00 0.00 0.01 0.01 0.01 0.01 0.02 0.02 0.02 0.02 0.02 0.02 0.02 0.03 0.03 0.02 0.02 0.01 0.01 0.01 0.01 0.00 0.00 0.00 0.00 0.00 0.00 0.00 0.00 0.00 0.00 0.00 0.00 0.00 0.00 0.00 0.00 0.00 0.00 0.00 0.00 0.00 0.00
0.00 0.01 0.01 0.01 0.01 0.01 0.02 0.02 0.02 0.02 0.03 0.03 0.04 0.04 0.04 0.03 0.02 0.01 0.01 0.00 0.00 0.00 0.00 0.00 0.00 0.00 0.00 0.00 0.00 0.00 0.00 0.00 0.00 0.00 0.00 0.00 0.00 0.00 0.00 0.00 0.00 0.00 0.00 0.00
0.00 0.00 0.01 0.01 0.01 0.01 0.02 0.02 0.02 0.04 0.05 0.06 0.05 0.04 0.02 0.01 0.01 0.00 0.00 0.00 0.00 0.00 0.00 0.00 0.00 0.00 0.00 0.00 0.00 0.00 0.00 0.00 0.00 0.00 0.00 0.00 0.00 0.00 0.00 0.00 0.00 0.00 0.00 0.00
0.01 0.01 0.01 0.00 0.01 0.01 0.02 0.02 0.02 0.03 0.03 0.03 0.02 0.01 0.00 0.00 0.00 0.00 0.00 0.00 0.00 0.00 0.00 0.00 0.00 0.00 0.00 0.00 0.00 0.00 0.00 0.00 0.00 0.00 0.00 0.00 0.00 0.00 0.00 0.00 0.00 0.00 0.00 0.00
0.01 0.01 0.01 0.00 0.00 0.01 0.01 0.01 0.01 0.01 0.01 0.01 0.00 0.00 0.00 0.00 0.00 0.00 0.00 0.00 0.00 0.00 0.00 0.00 0.00 0.00 0.00 0.00 0.00 0.00 0.00 0.00 0.00 0.00 0.00 0.00 0.00 0.00 0.00 0.00 0.00 0.00 0.00 0.00
0.01 0.01 0.01 0.01 0.00 0.00 0.01 0.01 0.01 0.00 0.00 0.00 0.00 0.00 0.00 0.00 0.00 0.00 0.00 0.00 0.00 0.00 0.00 0.00 0.00 0.00 0.00 0.00 0.00 0.00 0.00 0.00 0.00 0.00 0.00 0.00 0.00 0.00 0.00 0.00 0.00 0.00 0.00 0.00
0.01 0.01 0.01 0.01 0.00 0.01 0.00 0.00 0.00 0.00 0.00 0.00 0.00 0.00 0.00 0.00 0.00 0.00 0.00 0.00 0.00 0.00 0.00 0.00 0.00 0.00 0.00 0.00 0.00 0.00 0.00 0.00 0.00 0.00 0.00 0.00 0.00 0.00 0.00 0.00 0.00 0.00 0.00 0.00
0.00 0.01 0.01 0.01 0.01 0.00 0.00 0.00 0.00 0.00 0.00 0.00 0.00 0.00 0.00 0.00 0.00 0.00 0.00 0.00 0.00 0.00 0.00 0.00 0.00 0.00 0.00 0.00 0.00 0.00 0.00 0.00 0.00 0.00 0.00 0.00 0.00 0.00 0.00 0.00 0.00 0.00 0.00 0.00
0.00 0.00 0.00 0.00 0.00 0.00 0.00 0.00 0.00 0.00 0.00 0.00 0.00 0.00 0.00 0.00 0.00 0.00 0.00 0.00 0.00 0.00 0.00 0.00 0.00 0.00 0.00 0.00 0.00 0.00 0.00 0.00 0.00 0.00 0.00 0.00 0.00 0.00 0.00 0.00 0.00 0.00 0.00 0.00
0.00 0.00 0.00 0.00 0.00 0.00 0.00 0.00 0.00 0.00 0.00 0.00 0.00 0.00 0.00 0.00 0.00 0.00 0.00 0.00 0.00 0.00 0.00 0.00 0.00 0.00 0.00 0.00 0.00 0.00 0.00 0.00 0.00 0.00 0.00 0.00 0.00 0.00 0.00 0.00 0.00 0.00 0.00 0.00
0.00 0.00 0.00 0.00 0.00 0.00 0.00 0.00 0.00 0.00 0.00 0.00 0.00 0.00 0.00 0.00 0.00 0.00 0.00 0.00 0.00 0.00 0.00 0.00 0.00 0.00 0.00 0.00 0.00 0.00 0.00 0.00 0.00 0.00 0.00 0.00 0.00 0.00 0.00 0.00 0.00 0.00 0.00 0.00
0.00 0.00 0.00 0.00 0.00 0.00 0.00 0.00 0.00 0.00 0.00 0.00 0.00 0.00 0.00 0.00 0.00 0.00 0.00 0.00 0.00 0.00 0.00 0.00 0.00 0.00 0.00 0.00 0.00 0.00 0.00 0.00 0.00 0.00 0.00 0.00 0.00 0.00 0.00 0.00 0.00 0.00 0.00 0.00
0.00 0.00 0.00 0.00 0.00 0.00 0.00 0.00 0.00 0.00 0.00 0.00 0.00 0.00 0.00 0.00 0.00 0.00 0.00 0.00 0.00 0.00 0.00 0.00 0.00 0.00 0.00 0.00 0.00 0.00 0.00 0.00 0.00 0.00 0.00 0.00 0.00 0.00 0.00 0.00 0.00 0.00 0.00 0.00
0.00 0.00 0.00 0.00 0.00 0.00 0.00 0.00 0.00 0.00 0.00 0.00 0.00 0.00 0.00 0.00 0.00 0.00 0.00 0.00 0.00 0.00 0.00 0.00 0.00 0.00 0.00 0.00 0.00 0.00 0.00 0.00 0.00 0.00 0.00 0.00 0.00 0.00 0.00 0.00 0.00 0.00 0.00 0.00
0.01 0.01 0.01 0.00 0.00 0.00 0.00 0.00 0.00 0.00 0.00 0.00 0.00 0.00 0.00 0.00 0.00 0.00 0.00 0.00 0.00 0.00 0.00 0.00 0.00 0.00 0.00 0.00 0.00 0.00 0.00 0.00 0.00 0.00 0.00 0.00 0.00 0.00 0.00 0.00 0.00 0.00 0.00 0.00
MSLP
1010.16 1010.17 1010.25 1010.42 1010.66 1010.96 1011.29 1011.64 1011.96 1012.25 1012.51 1012.73 1012.95 1013.18 1013.45 1013.79 1014.19 1014.67 1015.19 1015.74 1016.29 1016.80 1017.24 1017.61 1017.90 1018.11 1018.25 1018.35 1018.43 1018.50 1018.58 1018.69 1018.83 1019.02 1019.25 1019.53 1019.86 1020.22 1020.59 1020.98 1021.34 1021.67 1021.94 1022.14
1011.12 1011.14 1011.18 1011.24 1011.32 1011.44 1011.59 1011.78 1011.99 1012.24 1012.51 1012.82 1013.17 1013.56 1013.99 1014.47 1014.98 1015.51 1016.04 1016.56 1017.05 1017.48 1017.86 1018.17 1018.43 1018.63 1018.79 1018.91 1019.02 1019.13 1019.25 1019.38 1019.54 1019.73 1019.97 1020.24 1020.55 1020.88 1021.23 1021.57 1021.88 1022.15 1022.35 1022.47
1012.03 1012.06 1012.07 1012.06 1012.04 1012.04 1012.07 1012.14 1012.28 1012.49 1012.78 1013.15 1013.59 1014.09 1014.63 1015.19 1015.75 1016.30 1016.82 1017.29 1017.71 1018.08 1018.39 1018.66 1018.89 1019.09 1019.27 1019.43 1019.58 1019.73 1019.88 1020.03 1020.21 1020.41 1020.63 1020.89 1021.17 1021.47 1021.78 1022.07 1022.32 1022.53 1022.66 1022.71
1012.81 1012.85 1012.85 1012.80 1012.73 1012.66 1012.62 1012.64 1012.74 1012.95 1013.26 1013.67 1014.18 1014.75 1015.35 1015.95 1016.54 1017.07 1017.55 1017.97 1018.32 1018.62 1018.87 1019.10 1019.31 1019.52 1019.71 1019.90 1020.09 1020.27 1020.45 1020.63 1020.81 1021.01 1021.22 1021.45 1021.71 1021.97 1022.23 1022.47 1022.67 1022.82 1022.88 1022.88
1013.42 1013.45 1013.44 1013.38 1013.29 1013.20 1013.14 1013.15 1013.26 1013.49 1013.83 1014.29 1014.84 1015.46 1016.09 1016.71 1017.29 1017.80 1018.24 1018.59 1018.88 1019.12 1019.32 1019.51 1019.70 1019.90 1020.11 1020.32 1020.54 1020.74 1020.94 1021.14 1021.33 1021.52 1021.72 1021.94 1022.16 1022.39 1022.61 1022.80 1022.95 1023.03 1023.05 1022.98
1013.84 1013.85 1013.81 1013.75 1013.66 1013.58 1013.54 1013.58 1013.73 1013.99 1014.38 1014.89 1015.48 1016.13 1016.78 1017.41 1017.98 1018.46 1018.85 1019.15 1019.39 1019.58 1019.74 1019.90 1020.07 1020.26 1020.47 1020.69 1020.92 1021.15 1021.37 1021.57 1021.77 1021.96 1022.16 1022.35 1022.55 1022.75 1022.93 1023.08 1023.18 1023.22 1023.19 1023.07
1014.09 1014.04 1013.99 1013.92 1013.84 1013.79 1013.79 1013.88 1014.07 1014.39 1014.83 1015.38 1016.02 1016.69 1017.36 1017.99 1018.55 1019.01 1019.38 1019.65 1019.84 1019.99 1020.12 1020.25 1020.40 1020.58 1020.79 1021.02 1021.25 1021.49 1021.72 1021.94 1022.14 1022.34 1022.53 1022.72 1022.90 1023.07 1023.23 1023.34 1023.40 1023.40 1023.32 1023.17
1014.19 1014.10 1014.02 1013.94 1013.88 1013.86 1013.91 1014.04 1014.29 1014.66 1015.14 1015.74 1016.40 1017.10 1017.79 1018.43 1018.99 1019.44 1019.80 1020.05 1020.23 1020.36 1020.46 1020.57 1020.70 1020.87 1021.06 1021.28 1021.52 1021.76 1022.00 1022.23 1022.45 1022.65 1022.85 1023.04 1023.22 1023.38 1023.51 1023.59 1023.62 1023.59 1023.47 1023.28
1014.22 1014.09 1013.98 1013.90 1013.86 1013.87 1013.95 1014.13 1014.42 1014.83 1015.35 1015.97 1016.66 1017.38 1018.08 1018.73 1019.30 1019.76 1020.12 1020.37 1020.55 1020.67 1020.76 1020.85 1020.97 1021.11 1021.29 1021.50 1021.73 1021.97 1022.21 1022.45 1022.68 1022.90 1023.11 1023.31 1023.49 1023.64 1023.76 1023.83 1023.83 1023.77 1023.62 1023.40
1014.26 1014.10 1013.99 1013.91 1013.89 1013.93 1014.04 1014.24 1014.56 1014.99 1015.53 1016.16 1016.85 1017.57 1018.28 1018.94 1019.52 1019.99 1020.36 1020.62 1020.80 1020.92 1021.01 1021.09 1021.18 1021.30 1021.46 1021.65 1021.86 1022.10 1022.35 1022.59 1022.84 1023.08 1023.30 1023.51 1023.70 1023.85 1023.96 1024.02 1024.00 1023.92 1023.75 1023.51
1014.37 1014.23 1014.13 1014.08 1014.07 1014.13 1014.26 1014.48 1014.80 1015.22 1015.75 1016.36 1017.04 1017.75 1018.45 1019.10 1019.68 1020.16 1020.54 1020.81 1021.00 1021.12 1021.20 1021.27 1021.34 1021.44 1021.57 1021.74 1021.94 1022.16 1022.40 1022.65 1022.91 1023.16 1023.40 1023.62 1023.82 1023.97 1024.08 1024.13 1024.10 1024.01 1023.83 1023.58
1014.61 1014.51 1014.46 1014.45 1014.48 1014.56 1014.70 1014.91 1015.21 1015.61 1016.09 1016.66 1017.30 1017.97 1018.63 1019.26 1019.83 1020.30 1020.68 1020.96 1021.15 1021.28 1021.35 1021.40 1021.46 1021.53 1021.63 1021.77 1021.94 1022.15 1022.38 1022.63 1022.89 1023.15 1023.40 1023.63 1023.82 1023.98 1024.09 1024.13 1024.11 1024.01 1023.83 1023.58
1014.96 1014.95 1014.96 1015.01 1015.08 1015.19 1015.33 1015.53 1015.80 1016.15 1016.58 1017.09 1017.65 1018.26 1018.87 1019.46 1019.99 1020.45 1020.82 1021.10 1021.28 1021.40 1021.46 1021.50 1021.53 1021.58 1021.65 1021.76 1021.91 1022.09 1022.31 1022.55 1022.80 1023.06 1023.31 1023.54 1023.74 1023.89 1023.99 1024.03 1024.01 1023.91 1023.74 1023.51
1015.39 1015.48 1015.59 1015.70 1015.83 1015.96 1016.12 1016.30 1016.53 1016.82 1017.18 1017.61 1018.09 1018.62 1019.16 1019.69 1020.18 1020.61 1020.96 1021.22 1021.40 1021.51 1021.56 1021.58 1021.59 1021.61 1021.66 1021.74 1021.86 1022.02 1022.22 1022.44 1022.68 1022.92 1023.16 1023.38 1023.57 1023.72 1023.82 1023.86 1023.83 1023.74 1023.59 1023.37
1015.82 1016.02 1016.22 1016.42 1016.60 1016.77 1016.93 1017.10 1017.30 1017.53 1017.82 1018.17 1018.58 1019.03 1019.50 1019.96 1020.40 1020.79 1021.11 1021.36 1021.52 1021.62 1021.67 1021.67 1021.67 1021.67 1021.69 1021.74 1021.84 1021.97 1022.14 1022.34 1022.56 1022.78 1023.00 1023.21 1023.38 1023.51 1023.60 1023.63 1023.61 1023.53 1023.40 1023.21
1016.17 1016.47 1016.77 1017.04 1017.28 1017.49 1017.66 1017.83 1018.00 1018.19 1018.42 1018.71 1019.05 1019.43 1019.84 1020.25 1020.64 1021.00 1021.30 1021.52 1021.68 1021.77 1021.81 1021.81 1021.79 1021.77 1021.77 1021.80 1021.87 1021.98 1022.12 1022.30 1022.49 1022.69 1022.88 1023.06 1023.21 1023.33 1023.40 1023.43 1023.41 1023.34 1023.22 1023.06
1016.37 1016.76 1017.14 1017.48 1017.77 1018.01 1018.21 1018.38 1018.54 1018.71 1018.92 1019.16 1019.46 1019.79 1020.16 1020.54 1020.90 1021.23 1021.51 1021.73 1021.88 1021.97 1022.00 1022.00 1021.98 1021.95 1021.94 1021.95 1021.99 1022.07 1022.19 1022.34 1022.50 1022.67 1022.83 1022.99 1023.12 1023.22 1023.28 1023.30 1023.28 1023.21 1023.11 1022.97
1016.40 1016.85 1017.29 1017.69 1018.02 1018.30 1018.53 1018.72 1018.89 1019.07 1019.27 1019.50 1019.79 1020.11 1020.46 1020.82 1021.18 1021.50 1021.78 1022.00 1022.15 1022.24 1022.28 1022.27 1022.24 1022.21 1022.18 1022.18 1022.20 1022.26 1022.35 1022.46 1022.60 1022.74 1022.89 1023.02 1023.13 1023.21 1023.26 1023.27 1023.25 1023.20 1023.10 1022.98
1016.28 1016.78 1017.26 1017.69 1018.06 1018.37 1018.63 1018.85 1019.05 1019.26 1019.48 1019.74 1020.04 1020.38 1020.74 1021.12 1021.48 1021.82 1022.10 1022.33 1022.49 1022.58 1022.62 1022.62 1022.58 1022.54 1022.50 1022.48 1022.48 1022.52 1022.58 1022.68 1022.79 1022.91 1023.03 1023.15 1023.25 1023.32 1023.37 1023.38 1023.37 1023.32 1023.23 1023.12
1016.10 1016.62 1017.12 1017.57 1017.97 1018.31 1018.60 1018.86 1019.10 1019.34 1019.62 1019.92 1020.26 1020.64 1021.03 1021.44 1021.82 1022.18 1022.48 1022.71 1022.88 1022.98 1023.02 1023.01 1022.96 1022.91 1022.85 1022.81 1022.80 1022.82 1022.86 1022.94 1023.03 1023.14 1023.26 1023.37 1023.47 1023.54 1023.60 1023.62 1023.61 1023.58 1023.50 1023.40
1015.95 1016.48 1016.98 1017.44 1017.85 1018.21 1018.53 1018.82 1019.11 1019.41 1019.73 1020.09 1020.49 1020.91 1021.35 1021.78 1022.20 1022.57 1022.89 1023.13 1023.30 1023.39 1023.42 1023.40 1023.35 1023.28 1023.21 1023.15 1023.13 1023.13 1023.16 1023.22 1023.31 1023.42 1023.54 1023.66 1023.76 1023.86 1023.93 1023.97 1023.98 1023.95 1023.89 1023.80
1015.91 1016.44 1016.94 1017.40 1017.81 1018.18 1018.52 1018.84 1019.17 1019.52 1019.89 1020.30 1020.74 1021.21 1021.69 1022.15 1022.59 1022.97 1023.29 1023.54 1023.70 1023.78 1023.80 1023.77 1023.70 1023.62 1023.54 1023.47 1023.43 1023.42 1023.45 1023.51 1023.61 1023.72 1023.85 1023.99 1024.12 1024.23 1024.33 1024.39 1024.43 1024.42 1024.38 1024.29
1016.03 1016.55 1017.04 1017.49 1017.90 1018.27 1018.62 1018.97 1019.32 1019.70 1020.12 1020.56 1021.04 1021.54 1022.03 1022.51 1022.95 1023.34 1023.65 1023.89 1024.04 1024.11 1024.12 1024.07 1023.99 1023.90 1023.81 1023.74 1023.70 1023.70 1023.74 1023.81 1023.91 1024.05 1024.20 1024.35 1024.51 1024.65 1024.78 1024.87 1024.94 1024.96 1024.93 1024.86
1016.29 1016.81 1017.28 1017.72 1018.11 1018.48 1018.84 1019.19 1019.56 1019.96 1020.39 1020.86 1021.35 1021.85 1022.35 1022.83 1023.26 1023.63 1023.92 1024.14 1024.28 1024.34 1024.34 1024.29 1024.21 1024.13 1024.05 1023.99 1023.96 1023.97 1024.03 1024.12 1024.24 1024.40 1024.57 1024.75 1024.93 1025.10 1025.26 1025.38 1025.47 1025.52 1025.51 1025.46
1016.64 1017.15 1017.61 1018.03 1018.42 1018.78 1019.12 1019.48 1019.85 1020.25 1020.68 1021.15 1021.63 1022.12 1022.60 1023.05 1023.46 1023.80 1024.08 1024.28 1024.40 1024.46 1024.46 1024.42 1024.37 1024.30 1024.25 1024.22 1024.23 1024.27 1024.35 1024.47 1024.62 1024.80 1024.99 1025.19 1025.39 1025.58 1025.75 1025.90 1026.01 1026.08 1026.10 1026.07
1016.98 1017.49 1017.94 1018.35 1018.72 1019.07 1019.41 1019.75 1020.12 1020.51 1020.93 1021.37 1021.83 1022.29 1022.74 1023.16 1023.53 1023.85 1024.10 1024.29 1024.41 1024.48 1024.50 1024.50 1024.48 1024.46 1024.46 1024.48 1024.53 1024.62 1024.74 1024.89 1025.06 1025.26 1025.46 1025.67 1025.88 1026.08 1026.26 1026.41 1026.53 1026.62 1026.66 1026.65
1017.24 1017.73 1018.17 1018.57 1018.93 1019.27 1019.60 1019.94 1020.30 1020.67 1021.07 1021.49 1021.91 1022.34 1022.75 1023.14 1023.48 1023.78 1024.02 1024.20 1024.34 1024.43 1024.50 1024.55 1024.59 1024.63 1024.70 1024.78 1024.89 1025.03 1025.19 1025.37 1025.57 1025.78 1025.99 1026.19 1026.39 1026.58 1026.75 1026.90 1027.03 1027.12 1027.18 1027.19
Thickness
5659 5671 5677 5679 5680 5681 5676 5670 5659 5658 5653 5654 5656 5659 5657 5652 5648 5642 5635 5627 5622 5617 5612 5607 5604 5600 5595 5590 5585 5580 5574 5568 5561 5555 5548 5542 5534 5527 5520 5514 5507 5501 5494 5487
5645 5661 5667 5668 5669 5671 5668 5668 5660 5652 5643 5646 5648 5648 5645 5640 5635 5628 5621 5612 5606 5601 5596 5591 5587 5582 5577 5572 5567 5562 5556 5549 5543 5537 5530 5523 5516 5509 5502 5495 5490 5484 5477 5471
5621 5639 5649 5634 5643 5650 5646 5648 5650 5639 5634 5633 5631 5630 5627 5626 5621 5614 5608 5600 5593 5586 5580 5576 5570 5565 5559 5554 5549 5543 5537 5531 5525 5519 5512 5506 5499 5492 5485 5479 5473 5468 5462 5457
5608 5618 5609 5608 5630 5634 5630 5628 5633 5628 5622 5618 5614 5610 5608 5607 5604 5598 5591 5583 5576 5569 5563 5557 5552 5547 5542 5537 5531 5525 5520 5514 5509 5502 5495 5489 5482 5475 5469 5464 5458 5453 5449 5444
5591 5595 5601 5611 5617 5620 5611 5603 5612 5611 5605 5602 5602 5599 5590 5586 5584 5579 5572 5565 5559 5553 5547 5542 5537 5532 5526 5520 5514 5509 5504 5499 5493 5487 5480 5473 5466 5460 5455 5450 5445 5440 5435 5430
5583 5583 5581 5592 5608 5615 5604 5586 5599 5600 5594 5592 5591 5584 5575 5568 5565 5560 5554 5548 5543 5537 5533 5527 5521 5517 5511 5505 5500 5495 5490 5485 5479 5472 5466 5459 5452 5447 5441 5436 5431 5427 5422 5417
5572 5572 5580 5590 5601 5604 5584 5577 5589 5589 5585 5581 5575 5570 5561 5553 5547 5543 5538 5534 5529 5524 5519 5514 5509 5503 5497 5492 5486 5482 5477 5471 5465 5458 5452 5445 5439 5433 5428 5423 5418 5413 5408 5404
5564 5562 5566 5585 5588 5579 5573 5578 5578 5575 5571 5566 5560 5553 5546 5539 5533 5529 5524 5519 5515 5510 5506 5501 5496 5491 5485 5480 5475 5471 5465 5458 5451 5445 5440 5433 5426 5421 5416 5410 5404 5399 5394 5391
5561 5558 5567 5573 5573 5573 5573 5571 5569 5564 5559 5554 5548 5541 5533 5526 5520 5515 5511 5506 5502 5498 5494 5489 5485 5480 5474 5470 5466 5460 5452 5444 5438 5432 5426 5421 5415 5409 5402 5397 5391 5387 5383 5381
5556 5555 5559 5561 5563 5564 5565 5564 5563 5558 5550 5544 5537 5529 5521 5513 5506 5501 5497 5494 5490 5486 5482 5477 5474 5470 5465 5461 5456 5449 5441 5433 5426 5420 5414 5409 5403 5398 5392 5387 5382 5379 5375 5373
5549 5549 5551 5552 5552 5553 5553 5553 5551 5547 5540 5533 5525 5517 5509 5502 5495 5491 5487 5483 5479 5475 5471 5468 5464 5460 5457 5452 5447 5439 5431 5423 5416 5410 5404 5399 5394 5389 5385 5381 5377 5373 5370 5368
5540 5543 5540 5539 5541 5542 5541 5539 5537 5533 5525 5518 5513 5505 5498 5491 5486 5481 5478 5475 5471 5467 5463 5459 5455 5451 5447 5443 5438 5430 5421 5414 5407 5401 5396 5391 5387 5383 5380 5377 5374 5371 5368 5365
5539 5538 5533 5531 5530 5530 5528 5526 5524 5520 5514 5507 5501 5496 5490 5484 5479 5475 5473 5469 5465 5461 5456 5452 5448 5443 5439 5434 5428 5420 5412 5406 5400 5396 5391 5386 5381 5377 5373 5371 5369 5366 5364 5363
5533 5530 5523 5520 5517 5517 5516 5514 5511 5507 5503 5499 5494 5489 5484 5480 5476 5473 5469 5466 5461 5456 5451 5446 5442 5437 5432 5426 5420 5413 5407 5402 5396 5391 5387 5383 5378 5374 5369 5366 5362 5360 5361 5360
5525 5523 5517 5513 5510 5508 5506 5504 5501 5497 5494 5490 5488 5485 5481 5478 5474 5471 5467 5463 5458 5452 5447 5442 5437 5431 5426 5421 5415 5409 5403 5397 5392 5388 5384 5380 5376 5371 5367 5363 5359 5356 5355 5356
5517 5514 5511 5508 5505 5502 5500 5498 5495 5492 5489 5487 5485 5482 5480 5477 5473 5469 5465 5460 5454 5447 5443 5438 5432 5427 5422 5416 5411 5405 5399 5396 5391 5385 5381 5377 5372 5367 5363 5359 5356 5354 5354 5354
5512 5508 5506 5504 5501 5498 5497 5495 5493 5490 5488 5486 5483 5481 5478 5474 5470 5465 5460 5456 5451 5444 5439 5434 5429 5425 5419 5413 5408 5403 5398 5393 5390 5383 5378 5374 5369 5365 5362 5358 5356 5354 5354 5356
5516 5512 5508 5505 5502 5499 5497 5495 5493 5490 5487 5486 5484 5480 5476 5472 5466 5461 5456 5452 5446 5440 5436 5432 5427 5422 5417 5412 5407 5402 5397 5391 5386 5381 5376 5372 5368 5365 5362 5359 5358 5357 5357 5359
5515 5512 5508 5506 5503 5500 5497 5494 5492 5490 5489 5487 5483 5479 5475 5470 5465 5460 5455 5450 5444 5438 5434 5431 5426 5420 5415 5411 5407 5401 5396 5391 5385 5380 5376 5374 5369 5366 5363 5361 5360 5360 5361 5362
5515 5512 5510 5507 5504 5501 5498 5495 5493 5491 5489 5486 5482 5477 5473 5469 5465 5459 5454 5448 5443 5438 5435 5430 5425 5420 5415 5411 5408 5402 5396 5391 5386 5381 5378 5374 5371 5368 5366 5365 5364 5364 5365 5366
5514 5512 5510 5507 5504 5502 5499 5497 5494 5491 5488 5486 5482 5477 5472 5468 5465 5460 5453 5447 5444 5441 5436 5432 5427 5422 5418 5414 5410 5404 5398 5393 5388 5383 5379 5376 5373 5370 5368 5367 5367 5367 5368 5368
5513 5511 5509 5506 5503 5500 5498 5496 5494 5491 5488 5485 5482 5477 5472 5468 5464 5459 5455 5450 5446 5444 5439 5434 5429 5426 5422 5418 5412 5407 5401 5396 5391 5386 5381 5378 5375 5372 5371 5370 5369 5369 5369 5370
5511 5509 5507 5504 5501 5499 5497 5496 5494 5491 5488 5485 5482 5478 5473 5469 5465 5460 5454 5452 5450 5447 5442 5437 5434 5430 5426 5420 5415 5410 5405 5400 5394 5389 5385 5381 5378 5375 5373 5371 5370 5370 5370 5371
5508 5506 5504 5502 5500 5497 5495 5494 5492 5491 5488 5486 5483 5480 5475 5470 5465 5463 5461 5458 5455 5451 5446 5442 5439 5434 5430 5424 5419 5414 5409 5404 5399 5395 5390 5386 5382 5379 5375 5373 5371 5371 5371 5371
5506 5504 5502 5500 5497 5495 5494 5493 5491 5489 5488 5484 5483 5480 5478 5476 5471 5466 5464 5462 5459 5456 5451 5448 5444 5439 5434 5429 5424 5420 5415 5410 5406 5401 5396 5392 5387 5382 5378 5375 5373 5371 5370 5370
5502 5500 5498 5497 5496 5495 5494 5492 5488 5487 5485 5483 5480 5479 5478 5476 5473 5470 5467 5465 5463 5460 5456 5452 5448 5444 5440 5435 5431 5426 5422 5417 5412 5408 5403 5398 5393 5387 5382 5378 5375 5373 5372 5371
5498 5496 5495 5495 5495 5495 5493 5491 5489 5487 5485 5483 5480 5479 5478 5476 5474 5471 5470 5467 5465 5463 5461 5457 5453 5449 5445 5441 5437 5433 5429 5424 5420 5415 5410 5405 5399 5394 5388 5384 5379 5376 5374 5373